User: anonymous   Login
Location: Unspecified
(0.0000°N, 0.0000°E)
Time: 12:36:51
(UTC+00:00)
Language:

HUMSAT D - Orbit

View from above orbital plane
View from above orbital plane
View from above satellite
View from above satellite

Ground track
Ground track

The orbit data is extracted from the following two-line orbital elements,

1 39433U 13066T   21016.09029046  .00000590  00000-0  61905-4 0  9997
2 39433  97.4857  48.6128 0030849 169.1682 191.0209 14.92703868389190
Epoch (UTC): 16 January 2021 02:10:01
Eccentricity: 0.0030849
inclination: 97.4857°
perigee height: 568 km
apogee height: 611 km
right ascension of ascending node: 48.6128°
argument of perigee: 169.1682°
revolutions per day: 14.92703868
mean anomaly at epoch: 191.0209°
orbit number at epoch: 38919

The dashed part of the orbit path shows where the satellite is in the earth's shadow,  

DLR